Starlink 31036

operational
NORAD ID: 58533 Int'l Des: 2023-192 Owner: SPXS Country: US Constellation: starlink
LEOCIRCULAR

About Starlink 31036

Description loading...

Live Position

Loading 3D Globe...

Upcoming Passes

Altitude History

Altitude vs Time

uPlot chart will show altitude changes over time

Two-Line Element Set

1 58533U 23192C 25258.00292717 .00000111 00000-0 15891-4 0 9992
2 58533 53.1588 159.0548 0001470 84.1403 275.9765 15.30193460 99089
Epoch: Sep 15, 2025 • Age: 32 hours

Current Status

Altitude 475.2 km
Velocity 7.63 km/s
Sub-Earth Point 18.25°N, 158.46°W
Launch Date Dec 8, 2023
Age 1.7 years
Type internet

Technical Details

Classification Payload
Mass 730.00 kg
Dry Mass 700.00 kg
Total Mass 730.00 kg
Length 0.30 m
Diameter 4.10 m
Span 29.00 m
Shape Box + pan
Manufacturer SPXS
Bus Type Starlink V2M
Phase Status In Orbit
Owner/State SPXS/US

Large Constellations

Loading constellations...